Wetterdaten: Samstag, 15.01.2011
Datum Zeit Temp. A. Feuchte A. Luftdruck Regen Wind Richtung Richtung Sonnenschein UV Solar Windben
15.01.2011 00:00 8,8 C 89 % 1011,8 hPa 0,3 mm 6,4 km/h (2 Bft) W 270 0 min 0 UV-I 0 W/m 20,9 km/h (4 Bft)
15.01.2011 00:10 8,8 C 90 % 1011,9 hPa 0,0 mm 4,8 km/h (1 Bft) W 270 0 min 0 UV-I 0 W/m 17,7 km/h (3 Bft)
15.01.2011 00:20 8,7 C 90 % 1012,0 hPa 0,0 mm 4,8 km/h (1 Bft) W 270 0 min 0 UV-I 0 W/m 16,1 km/h (3 Bft)
15.01.2011 00:30 8,7 C 90 % 1011,9 hPa 0,3 mm 6,4 km/h (2 Bft) W-SW 247 0 min 0 UV-I 0 W/m 17,7 km/h (3 Bft)
15.01.2011 00:40 8,7 C 90 % 1011,9 hPa 0,0 mm 4,8 km/h (1 Bft) W-SW 247 0 min 0 UV-I 0 W/m 14,5 km/h (3 Bft)
15.01.2011 00:50 8,6 C 90 % 1012,0 hPa 0,3 mm 4,8 km/h (1 Bft) W-SW 247 0 min 0 UV-I 0 W/m 9,7 km/h (2 Bft)
15.01.2011 01:00 8,6 C 91 % 1012,2 hPa 0,0 mm 6,4 km/h (2 Bft) W-SW 247 0 min 0 UV-I 0 W/m 16,1 km/h (3 Bft)
15.01.2011 01:10 8,6 C 91 % 1012,1 hPa 0,0 mm 4,8 km/h (1 Bft) W-SW 247 0 min 0 UV-I 0 W/m 16,1 km/h (3 Bft)
15.01.2011 01:20 8,5 C 91 % 1012,2 hPa 0,0 mm 8,0 km/h (2 Bft) W-SW 247 0 min 0 UV-I 0 W/m 19,3 km/h (3 Bft)
15.01.2011 01:30 8,5 C 91 % 1012,3 hPa 0,0 mm 6,4 km/h (2 Bft) W-SW 247 0 min 0 UV-I 0 W/m 19,3 km/h (3 Bft)
15.01.2011 01:40 8,5 C 91 % 1012,4 hPa 0,0 mm 6,4 km/h (2 Bft) SW 225 0 min 0 UV-I 0 W/m 17,7 km/h (3 Bft)
15.01.2011 01:50 8,4 C 91 % 1012,7 hPa 0,0 mm 6,4 km/h (2 Bft) SW 225 0 min 0 UV-I 0 W/m 19,3 km/h (3 Bft)
15.01.2011 02:00 8,5 C 92 % 1013,0 hPa 0,0 mm 8,0 km/h (2 Bft) W 270 0 min 0 UV-I 0 W/m 20,9 km/h (4 Bft)
15.01.2011 02:10 8,5 C 92 % 1013,2 hPa 0,0 mm 9,7 km/h (2 Bft) W-SW 247 0 min 0 UV-I 0 W/m 24,1 km/h (4 Bft)
15.01.2011 02:20 8,5 C 92 % 1013,3 hPa 0,0 mm 9,7 km/h (2 Bft) W 270 0 min 0 UV-I 0 W/m 25,7 km/h (4 Bft)
15.01.2011 02:30 8,6 C 92 % 1013,7 hPa 0,0 mm 8,0 km/h (2 Bft) W 270 0 min 0 UV-I 0 W/m 24,1 km/h (4 Bft)
15.01.2011 02:40 8,6 C 92 % 1014,0 hPa 0,0 mm 8,0 km/h (2 Bft) W 270 0 min 0 UV-I 0 W/m 24,1 km/h (4 Bft)
15.01.2011 02:50 8,5 C 91 % 1014,0 hPa 0,0 mm 8,0 km/h (2 Bft) W 270 0 min 0 UV-I 0 W/m 20,9 km/h (4 Bft)
15.01.2011 03:00 8,5 C 91 % 1014,6 hPa 0,0 mm 4,8 km/h (1 Bft) W-SW 247 0 min 0 UV-I 0 W/m 22,5 km/h (4 Bft)
15.01.2011 03:10 8,5 C 91 % 1014,6 hPa 0,0 mm 6,4 km/h (2 Bft) W 270 0 min 0 UV-I 0 W/m 19,3 km/h (3 Bft)
15.01.2011 03:20 8,5 C 91 % 1014,5 hPa 0,0 mm 6,4 km/h (2 Bft) W-SW 247 0 min 0 UV-I 0 W/m 17,7 km/h (3 Bft)
15.01.2011 03:30 8,5 C 91 % 1014,4 hPa 0,0 mm 8,0 km/h (2 Bft) W-SW 247 0 min 0 UV-I 0 W/m 19,3 km/h (3 Bft)
15.01.2011 03:40 8,6 C 91 % 1014,9 hPa 0,0 mm 6,4 km/h (2 Bft) W-SW 247 0 min 0 UV-I 0 W/m 14,5 km/h (3 Bft)
15.01.2011 03:50 8,6 C 91 % 1015,0 hPa 0,0 mm 4,8 km/h (1 Bft) W 270 0 min 0 UV-I 0 W/m 19,3 km/h (3 Bft)
15.01.2011 04:00 8,6 C 90 % 1015,2 hPa 0,0 mm 4,8 km/h (1 Bft) W 270 0 min 0 UV-I 0 W/m 11,3 km/h (2 Bft)
15.01.2011 04:10 8,6 C 90 % 1015,4 hPa 0,0 mm 6,4 km/h (2 Bft) W-SW 247 0 min 0 UV-I 0 W/m 16,1 km/h (3 Bft)
15.01.2011 04:20 8,6 C 90 % 1015,4 hPa 1,3 mm 4,8 km/h (1 Bft) SW 225 0 min 0 UV-I 0 W/m 16,1 km/h (3 Bft)
15.01.2011 04:30 8,6 C 90 % 1015,5 hPa 0,8 mm 6,4 km/h (2 Bft) W 270 0 min 0 UV-I 0 W/m 16,1 km/h (3 Bft)
15.01.2011 04:40 8,5 C 90 % 1015,6 hPa 0,0 mm 4,8 km/h (1 Bft) W 270 0 min 0 UV-I 0 W/m 17,7 km/h (3 Bft)
15.01.2011 04:50 8,5 C 91 % 1015,7 hPa 0,0 mm 4,8 km/h (1 Bft) SW 225 0 min 0 UV-I 0 W/m 19,3 km/h (3 Bft)
15.01.2011 05:00 8,4 C 91 % 1015,8 hPa 0,0 mm 4,8 km/h (1 Bft) W-SW 247 0 min 0 UV-I 0 W/m 16,1 km/h (3 Bft)
15.01.2011 05:10 8,4 C 91 % 1015,9 hPa 0,0 mm 9,7 km/h (2 Bft) W-SW 247 0 min 0 UV-I 0 W/m 24,1 km/h (4 Bft)
15.01.2011 05:20 8,4 C 91 % 1016,3 hPa 0,0 mm 8,0 km/h (2 Bft) W-SW 247 0 min 0 UV-I 0 W/m 17,7 km/h (3 Bft)
15.01.2011 05:30 8,3 C 91 % 1016,4 hPa 0,0 mm 6,4 km/h (2 Bft) W-SW 247 0 min 0 UV-I 0 W/m 17,7 km/h (3 Bft)
15.01.2011 05:40 8,3 C 91 % 1016,5 hPa 0,0 mm 4,8 km/h (1 Bft) W-SW 247 0 min 0 UV-I 0 W/m 19,3 km/h (3 Bft)
15.01.2011 05:50 8,3 C 91 % 1016,6 hPa 0,0 mm 6,4 km/h (2 Bft) W-SW 247 0 min 0 UV-I 0 W/m 16,1 km/h (3 Bft)
15.01.2011 06:00 8,3 C 91 % 1016,9 hPa 0,0 mm 6,4 km/h (2 Bft) W 270 0 min 0 UV-I 0 W/m 20,9 km/h (4 Bft)
15.01.2011 06:10 8,3 C 91 % 1017,0 hPa 0,0 mm 6,4 km/h (2 Bft) SW 225 0 min 0 UV-I 0 W/m 19,3 km/h (3 Bft)
15.01.2011 06:20 8,3 C 91 % 1016,9 hPa 0,0 mm 9,7 km/h (2 Bft) W-SW 247 0 min 0 UV-I 0 W/m 22,5 km/h (4 Bft)
15.01.2011 06:30 8,2 C 91 % 1017,0 hPa 0,0 mm 9,7 km/h (2 Bft) W-SW 247 0 min 0 UV-I 0 W/m 24,1 km/h (4 Bft)
15.01.2011 06:40 8,2 C 91 % 1017,2 hPa 0,0 mm 6,4 km/h (2 Bft) W-SW 247 0 min 0 UV-I 0 W/m 20,9 km/h (4 Bft)
15.01.2011 06:50 8,2 C 90 % 1017,3 hPa 0,0 mm 6,4 km/h (2 Bft) W-SW 247 0 min 0 UV-I 0 W/m 19,3 km/h (3 Bft)
15.01.2011 07:00 8,2 C 90 % 1017,7 hPa 0,0 mm 6,4 km/h (2 Bft) SW 225 0 min 0 UV-I 0 W/m 19,3 km/h (3 Bft)
15.01.2011 07:10 8,1 C 90 % 1017,8 hPa 0,0 mm 8,0 km/h (2 Bft) W-SW 247 0 min 0 UV-I 0 W/m 19,3 km/h (3 Bft)
15.01.2011 07:20 8,1 C 90 % 1017,9 hPa 0,0 mm 8,0 km/h (2 Bft) W-SW 247 0 min 0 UV-I 0 W/m 19,3 km/h (3 Bft)
15.01.2011 07:30 8,1 C 90 % 1017,9 hPa 0,0 mm 6,4 km/h (2 Bft) W-SW 247 0 min 0 UV-I 0 W/m 14,5 km/h (3 Bft)
15.01.2011 07:40 8,0 C 89 % 1018,0 hPa 0,0 mm 8,0 km/h (2 Bft) W 270 0 min 0 UV-I 0 W/m 17,7 km/h (3 Bft)
15.01.2011 07:50 8,1 C 89 % 1018,4 hPa 0,0 mm 6,4 km/h (2 Bft) W-SW 247 0 min 0 UV-I 0 W/m 19,3 km/h (3 Bft)
15.01.2011 08:00 8,0 C 89 % 1018,5 hPa 0,0 mm 4,1 km/h (1 Bft) SW 236 0 min 0 UV-I 0 W/m 9,7 km/h (2 Bft)
15.01.2011 08:10 8,0 C 89 % 1018,7 hPa 0,0 mm 6,4 km/h (2 Bft) W-SW 247 0 min 0 UV-I 0 W/m 17,7 km/h (3 Bft)
15.01.2011 08:20 7,9 C 89 % 1018,6 hPa 0,0 mm 3,2 km/h (1 Bft) SW 225 0 min 0 UV-I 0 W/m 16,1 km/h (3 Bft)
15.01.2011 08:30 7,8 C 89 % 1018,8 hPa 0,0 mm 4,8 km/h (1 Bft) W-SW 247 0 min 0 UV-I 0 W/m 16,1 km/h (3 Bft)
15.01.2011 08:40 7,8 C 89 % 1018,8 hPa 0,0 mm 4,8 km/h (1 Bft) W-SW 247 10 min 0 UV-I 16 W/m 16,1 km/h (3 Bft)
15.01.2011 08:50 7,9 C 89 % 1019,1 hPa 0,0 mm 6,4 km/h (2 Bft) W-SW 247 10 min 0 UV-I 32 W/m 17,7 km/h (3 Bft)
15.01.2011 09:00 7,9 C 89 % 1019,1 hPa 0,0 mm 6,4 km/h (2 Bft) W-SW 247 0 min 0 UV-I 33 W/m 19,3 km/h (3 Bft)
15.01.2011 09:10 8,1 C 89 % 1019,3 hPa 0,0 mm 9,7 km/h (2 Bft) W-SW 247 0 min 0 UV-I 32 W/m 20,9 km/h (4 Bft)
15.01.2011 09:20 8,1 C 88 % 1019,4 hPa 0,0 mm 6,4 km/h (2 Bft) W-SW 247 0 min 0 UV-I 32 W/m 20,9 km/h (4 Bft)
15.01.2011 09:30 8,2 C 88 % 1019,5 hPa 0,0 mm 4,8 km/h (1 Bft) W-SW 247 0 min 0 UV-I 51 W/m 17,7 km/h (3 Bft)
15.01.2011 09:40 8,3 C 88 % 1019,6 hPa 0,0 mm 4,8 km/h (1 Bft) W-SW 247 0 min 0 UV-I 54 W/m 17,7 km/h (3 Bft)
15.01.2011 09:50 8,3 C 87 % 1019,5 hPa 0,0 mm 4,8 km/h (1 Bft) W-SW 247 0 min 0 UV-I 70 W/m 16,1 km/h (3 Bft)
15.01.2011 10:00 8,4 C 87 % 1019,5 hPa 0,0 mm 3,2 km/h (1 Bft) SW 225 0 min 0 UV-I 77 W/m 9,7 km/h (2 Bft)
15.01.2011 10:10 8,4 C 87 % 1019,7 hPa 0,0 mm 6,4 km/h (2 Bft) W-SW 247 0 min 0 UV-I 77 W/m 20,9 km/h (4 Bft)
15.01.2011 10:20 8,6 C 87 % 1019,6 hPa 0,0 mm 5,3 km/h (1 Bft) S-SW 212 0 min 0 UV-I 56 W/m 17,7 km/h (3 Bft)
15.01.2011 10:30 8,7 C 87 % 1019,7 hPa 0,0 mm 4,9 km/h (1 Bft) SW 222 0 min 0 UV-I 92 W/m 17,7 km/h (3 Bft)
15.01.2011 10:40 8,8 C 87 % 1019,8 hPa 0,0 mm 6,4 km/h (2 Bft) W-SW 247 10 min 0 UV-I 132 W/m 20,9 km/h (4 Bft)
15.01.2011 10:50 8,9 C 86 % 1020,0 hPa 0,0 mm 8,0 km/h (2 Bft) W-SW 247 0 min 0 UV-I 105 W/m 25,7 km/h (4 Bft)
15.01.2011 11:00 9,0 C 85 % 1020,1 hPa 0,3 mm 9,7 km/h (2 Bft) W-SW 247 0 min 0 UV-I 79 W/m 20,9 km/h (4 Bft)
15.01.2011 11:10 9,1 C 85 % 1020,2 hPa 0,0 mm 9,7 km/h (2 Bft) W-SW 247 0 min 0 UV-I 74 W/m 22,5 km/h (4 Bft)
15.01.2011 11:20 9,2 C 84 % 1020,3 hPa 0,0 mm 6,4 km/h (2 Bft) W-SW 247 0 min 0 UV-I 76 W/m 20,9 km/h (4 Bft)
15.01.2011 11:30 9,2 C 84 % 1020,3 hPa 0,0 mm 8,0 km/h (2 Bft) W-SW 247 0 min 0 UV-I 72 W/m 24,1 km/h (4 Bft)
15.01.2011 11:40 9,3 C 84 % 1020,6 hPa 0,0 mm 8,0 km/h (2 Bft) W-SW 247 0 min 0 UV-I 83 W/m 24,1 km/h (4 Bft)
15.01.2011 11:50 9,4 C 83 % 1020,7 hPa 0,0 mm 8,0 km/h (2 Bft) W-SW 247 0 min 0 UV-I 67 W/m 22,5 km/h (4 Bft)
15.01.2011 12:00 9,4 C 83 % 1020,7 hPa 0,0 mm 6,4 km/h (2 Bft) W-SW 247 0 min 0 UV-I 70 W/m 22,5 km/h (4 Bft)
15.01.2011 12:10 9,5 C 83 % 1020,8 hPa 0,0 mm 3,2 km/h (1 Bft) W-SW 247 0 min 0 UV-I 42 W/m 14,5 km/h (3 Bft)
15.01.2011 12:20 9,5 C 83 % 1020,8 hPa 0,0 mm 3,2 km/h (1 Bft) SW 225 0 min 0 UV-I 63 W/m 14,5 km/h (3 Bft)
15.01.2011 12:30 9,5 C 83 % 1020,5 hPa 0,0 mm 4,8 km/h (1 Bft) SW 225 0 min 0 UV-I 70 W/m 14,5 km/h (3 Bft)
15.01.2011 12:40 9,5 C 83 % 1020,4 hPa 0,0 mm 4,8 km/h (1 Bft) SW 225 0 min 0 UV-I 77 W/m 20,9 km/h (4 Bft)
15.01.2011 12:50 9,5 C 83 % 1020,5 hPa 0,0 mm 4,8 km/h (1 Bft) S-SW 202 0 min 1 UV-I 109 W/m 17,7 km/h (3 Bft)
15.01.2011 13:00 9,6 C 82 % 1020,3 hPa 0,0 mm 6,4 km/h (2 Bft) SW 225 0 min 0 UV-I 84 W/m 17,7 km/h (3 Bft)
15.01.2011 13:10 9,6 C 82 % 1020,2 hPa 0,0 mm 6,4 km/h (2 Bft) S-SW 202 0 min 1 UV-I 127 W/m 24,1 km/h (4 Bft)
15.01.2011 13:20 9,7 C 81 % 1020,3 hPa 0,0 mm 8,0 km/h (2 Bft) W-SW 247 0 min 1 UV-I 113 W/m 24,1 km/h (4 Bft)
15.01.2011 13:30 9,7 C 80 % 1020,4 hPa 0,0 mm 6,4 km/h (2 Bft) W-SW 247 0 min 0 UV-I 69 W/m 24,1 km/h (4 Bft)
15.01.2011 13:40 9,7 C 79 % 1020,3 hPa 0,0 mm 8,0 km/h (2 Bft) S-SW 202 0 min 0 UV-I 72 W/m 20,9 km/h (4 Bft)
15.01.2011 13:50 9,7 C 79 % 1020,4 hPa 0,0 mm 6,4 km/h (2 Bft) SW 225 0 min 0 UV-I 60 W/m 19,3 km/h (3 Bft)
15.01.2011 14:00 9,7 C 79 % 1020,3 hPa 0,0 mm 6,4 km/h (2 Bft) SW 225 0 min 0 UV-I 72 W/m 16,1 km/h (3 Bft)
15.01.2011 14:10 9,7 C 79 % 1020,6 hPa 0,0 mm 4,8 km/h (1 Bft) S-SW 202 0 min 0 UV-I 60 W/m 19,3 km/h (3 Bft)
15.01.2011 14:20 9,7 C 79 % 1020,5 hPa 0,0 mm 4,8 km/h (1 Bft) SW 225 0 min 0 UV-I 26 W/m 17,7 km/h (3 Bft)
15.01.2011 14:30 9,7 C 79 % 1020,4 hPa 0,0 mm 4,8 km/h (1 Bft) S-SW 202 0 min 0 UV-I 21 W/m 17,7 km/h (3 Bft)
15.01.2011 14:40 9,6 C 79 % 1020,2 hPa 0,0 mm 6,4 km/h (2 Bft) W-SW 247 0 min 0 UV-I 51 W/m 20,9 km/h (4 Bft)
15.01.2011 14:50 9,6 C 79 % 1020,1 hPa 0,0 mm 4,8 km/h (1 Bft) SW 225 0 min 0 UV-I 65 W/m 20,9 km/h (4 Bft)
15.01.2011 15:00 9,7 C 78 % 1020,2 hPa 0,0 mm 6,4 km/h (2 Bft) SW 225 0 min 0 UV-I 62 W/m 19,3 km/h (3 Bft)
15.01.2011 15:10 9,7 C 78 % 1020,3 hPa 0,0 mm 4,8 km/h (1 Bft) SW 225 0 min 0 UV-I 42 W/m 19,3 km/h (3 Bft)
15.01.2011 15:20 9,7 C 78 % 1020,1 hPa 0,0 mm 3,2 km/h (1 Bft) SW 225 0 min 0 UV-I 33 W/m 11,3 km/h (2 Bft)
15.01.2011 15:30 9,8 C 78 % 1019,9 hPa 0,0 mm 3,2 km/h (1 Bft) SW 225 0 min 0 UV-I 47 W/m 14,5 km/h (3 Bft)
15.01.2011 15:40 9,8 C 78 % 1019,7 hPa 0,0 mm 3,2 km/h (1 Bft) S-SW 202 0 min 0 UV-I 51 W/m 11,3 km/h (2 Bft)
15.01.2011 15:50 9,8 C 78 % 1019,7 hPa 0,0 mm 3,2 km/h (1 Bft) SW 225 0 min 0 UV-I 25 W/m 14,5 km/h (3 Bft)
15.01.2011 16:00 9,8 C 78 % 1019,7 hPa 0,0 mm 1,6 km/h (1 Bft) SW 225 0 min 0 UV-I 16 W/m 11,3 km/h (2 Bft)
15.01.2011 16:10 9,8 C 77 % 1019,8 hPa 0,0 mm 3,2 km/h (1 Bft) SW 225 0 min 0 UV-I 14 W/m 11,3 km/h (2 Bft)
15.01.2011 16:20 9,8 C 77 % 1019,8 hPa 0,0 mm 3,2 km/h (1 Bft) SW 225 0 min 0 UV-I 11 W/m 11,3 km/h (2 Bft)
15.01.2011 16:30 9,8 C 77 % 1020,0 hPa 0,0 mm 3,2 km/h (1 Bft) SW 225 0 min 0 UV-I 9 W/m 16,1 km/h (3 Bft)
15.01.2011 16:40 9,8 C 77 % 1019,9 hPa 0,0 mm 3,2 km/h (1 Bft) SW 225 0 min 0 UV-I 5 W/m 11,3 km/h (2 Bft)
15.01.2011 16:50 9,7 C 77 % 1020,0 hPa 0,0 mm 3,2 km/h (1 Bft) SW 225 0 min 0 UV-I 0 W/m 9,7 km/h (2 Bft)
15.01.2011 17:00 9,7 C 78 % 1020,4 hPa 0,0 mm 1,6 km/h (1 Bft) SW 225 0 min 0 UV-I 0 W/m 9,7 km/h (2 Bft)
15.01.2011 17:10 9,6 C 78 % 1020,4 hPa 0,0 mm 1,6 km/h (1 Bft) SW 225 0 min 0 UV-I 0 W/m 8,0 km/h (2 Bft)
15.01.2011 17:20 9,6 C 77 % 1020,4 hPa 0,0 mm 3,2 km/h (1 Bft) W-SW 247 0 min 0 UV-I 0 W/m 17,7 km/h (3 Bft)
15.01.2011 17:30 9,6 C 77 % 1020,6 hPa 0,0 mm 3,2 km/h (1 Bft) SW 225 0 min 0 UV-I 0 W/m 16,1 km/h (3 Bft)
15.01.2011 17:40 9,6 C 77 % 1020,6 hPa 0,0 mm 2,4 km/h (1 Bft) S 190 0 min 0 UV-I 0 W/m 9,7 km/h (2 Bft)
15.01.2011 17:50 9,6 C 77 % 1020,8 hPa 0,0 mm 2,2 km/h (1 Bft) S 183 0 min 0 UV-I 0 W/m 9,7 km/h (2 Bft)
15.01.2011 18:00 9,6 C 77 % 1020,9 hPa 0,0 mm 2,0 km/h (1 Bft) SW 221 0 min 0 UV-I 0 W/m 9,7 km/h (2 Bft)
15.01.2011 18:10 9,6 C 77 % 1021,0 hPa 0,0 mm 1,2 km/h (1 Bft) SW 218 0 min 0 UV-I 0 W/m 6,4 km/h (2 Bft)
15.01.2011 18:20 9,6 C 77 % 1020,9 hPa 0,0 mm 1,9 km/h (1 Bft) W-SW 246 0 min 0 UV-I 0 W/m 8,0 km/h (2 Bft)
15.01.2011 18:30 9,5 C 77 % 1021,0 hPa 0,0 mm 1,4 km/h (1 Bft) W-SW 244 0 min 0 UV-I 0 W/m 6,4 km/h (2 Bft)
15.01.2011 18:40 9,5 C 77 % 1020,7 hPa 0,0 mm 1,2 km/h (1 Bft) S-SW 206 0 min 0 UV-I 0 W/m 6,4 km/h (2 Bft)
15.01.2011 18:50 9,5 C 77 % 1020,6 hPa 0,0 mm 2,4 km/h (1 Bft) SW 223 0 min 0 UV-I 0 W/m 8,0 km/h (2 Bft)
15.01.2011 19:00 9,4 C 77 % 1020,7 hPa 0,0 mm 0,7 km/h (0 Bft) S-SW 192 0 min 0 UV-I 0 W/m 4,8 km/h (1 Bft)
15.01.2011 19:10 9,4 C 78 % 1021,0 hPa 0,0 mm 1,3 km/h (1 Bft) SW 215 0 min 0 UV-I 0 W/m 8,0 km/h (2 Bft)
15.01.2011 19:20 9,3 C 78 % 1021,3 hPa 0,0 mm 2,2 km/h (1 Bft) W-SW 244 0 min 0 UV-I 0 W/m 14,5 km/h (3 Bft)
15.01.2011 19:30 9,3 C 77 % 1021,4 hPa 0,0 mm 2,1 km/h (1 Bft) S-SW 206 0 min 0 UV-I 0 W/m 8,0 km/h (2 Bft)
15.01.2011 19:40 9,3 C 77 % 1021,4 hPa 0,0 mm 2,3 km/h (1 Bft) SW 229 0 min 0 UV-I 0 W/m 8,0 km/h (2 Bft)
15.01.2011 19:50 9,2 C 76 % 1021,3 hPa 0,0 mm 4,7 km/h (1 Bft) W-SW 238 0 min 0 UV-I 0 W/m 14,5 km/h (3 Bft)
15.01.2011 20:00 9,2 C 76 % 1021,5 hPa 0,0 mm 3,8 km/h (1 Bft) S-SW 197 0 min 0 UV-I 0 W/m 17,7 km/h (3 Bft)
15.01.2011 20:10 9,2 C 76 % 1021,4 hPa 0,0 mm 3,5 km/h (1 Bft) S-SW 211 0 min 0 UV-I 0 W/m 14,5 km/h (3 Bft)
15.01.2011 20:20 9,2 C 76 % 1021,4 hPa 0,0 mm 3,5 km/h (1 Bft) S-SW 196 0 min 0 UV-I 0 W/m 11,3 km/h (2 Bft)
15.01.2011 20:30 9,1 C 76 % 1021,2 hPa 0,0 mm 2,9 km/h (1 Bft) SW 217 0 min 0 UV-I 0 W/m 8,0 km/h (2 Bft)
15.01.2011 20:40 9,1 C 76 % 1021,3 hPa 0,0 mm 3,0 km/h (1 Bft) SW 224 0 min 0 UV-I 0 W/m 14,5 km/h (3 Bft)
15.01.2011 20:50 9,1 C 75 % 1021,2 hPa 0,0 mm 2,1 km/h (1 Bft) S 189 0 min 0 UV-I 0 W/m 11,3 km/h (2 Bft)
15.01.2011 21:00 9,0 C 76 % 1021,2 hPa 0,0 mm 2,7 km/h (1 Bft) SW 223 0 min 0 UV-I 0 W/m 8,0 km/h (2 Bft)
15.01.2011 21:10 8,9 C 76 % 1021,0 hPa 0,0 mm 2,0 km/h (1 Bft) S-SW 204 0 min 0 UV-I 0 W/m 6,4 km/h (2 Bft)
15.01.2011 21:20 8,8 C 76 % 1020,9 hPa 0,0 mm 1,3 km/h (1 Bft) SW 218 0 min 0 UV-I 0 W/m 8,0 km/h (2 Bft)
15.01.2011 21:30 8,7 C 76 % 1020,9 hPa 0,0 mm 2,6 km/h (1 Bft) S 189 0 min 0 UV-I 0 W/m 14,5 km/h (3 Bft)
15.01.2011 21:40 8,6 C 77 % 1021,1 hPa 0,0 mm 2,2 km/h (1 Bft) SW 225 0 min 0 UV-I 0 W/m 9,7 km/h (2 Bft)
15.01.2011 21:50 8,6 C 77 % 1021,2 hPa 0,0 mm 1,5 km/h (1 Bft) S-SW 211 0 min 0 UV-I 0 W/m 8,0 km/h (2 Bft)
15.01.2011 22:00 8,4 C 77 % 1021,3 hPa 0,0 mm 0,6 km/h (0 Bft) SW 229 0 min 0 UV-I 0 W/m 4,8 km/h (1 Bft)
15.01.2011 22:10 8,3 C 77 % 1021,4 hPa 0,0 mm 0,5 km/h (0 Bft) S-SW 212 0 min 0 UV-I 0 W/m 4,8 km/h (1 Bft)
15.01.2011 22:20 8,2 C 78 % 1021,5 hPa 0,0 mm 0,3 km/h (0 Bft) SW 214 0 min 0 UV-I 0 W/m 6,4 km/h (2 Bft)
15.01.2011 22:30 8,2 C 78 % 1021,4 hPa 0,0 mm 0,9 km/h (0 Bft) SW 220 0 min 0 UV-I 0 W/m 6,4 km/h (2 Bft)
15.01.2011 22:40 8,1 C 79 % 1021,3 hPa 0,0 mm 0,4 km/h (0 Bft) S-SW 211 0 min 0 UV-I 0 W/m 3,2 km/h (1 Bft)
15.01.2011 22:50 8,1 C 79 % 1021,4 hPa 0,0 mm 0,9 km/h (0 Bft) SW 217 0 min 0 UV-I 0 W/m 4,8 km/h (1 Bft)
15.01.2011 23:00 8,1 C 80 % 1021,5 hPa 0,0 mm 1,6 km/h (1 Bft) SW 232 0 min 0 UV-I 0 W/m 8,0 km/h (2 Bft)
15.01.2011 23:10 8,1 C 80 % 1021,5 hPa 0,0 mm 0,7 km/h (0 Bft) S-SW 209 0 min 0 UV-I 0 W/m 4,8 km/h (1 Bft)
15.01.2011 23:20 8,1 C 80 % 1021,5 hPa 0,0 mm 0,2 km/h (0 Bft) W-SW 239 0 min 0 UV-I 0 W/m 4,8 km/h (1 Bft)
15.01.2011 23:30 8,1 C 80 % 1021,5 hPa 0,0 mm 0,1 km/h (0 Bft) S-SW 213 0 min 0 UV-I 0 W/m 3,2 km/h (1 Bft)
15.01.2011 23:40 8,0 C 79 % 1021,6 hPa 0,0 mm 0,2 km/h (0 Bft) W 267 0 min 0 UV-I 0 W/m 3,2 km/h (1 Bft)
15.01.2011 23:50 7,9 C 79 % 1021,7 hPa 0,0 mm 0,1 km/h (0 Bft) W 265 0 min 0 UV-I 0 W/m 3,2 km/h (1 Bft)
_ Min-Zeit 08:30 20:50 00:00 - 23:30 - - - - - 22:40
Minimum _ 7,8 C 75 % 1011,8 hPa - 0,1 km/h (0 Bft) - - - - - 3,2 km/h (1 Bft)
_ Max-Zeit 15:20 02:00 23:50 04:20 02:10 - - 08:40 13:10 10:40 02:20
Maximum _ 9,8 C 92 % 1021,7 hPa 1,3 mm 9,7 km/h
W-SW (2 Bft)
- - 10 min 1 UV-I 132 W/m 25,7 km/h
W (4 Bft)
Durchschnitt _ 8,9 C 84 % 1018,6 hPa #3,0 mm 4,8 km/h (1 Bft) W-SW - #30 min. 1 UV-I 59 W/m 15,5 km/h (3 Bft)